sat.trackr.live / text

‹ back to catalog

STARLINK-37238

NORAD 69247 · 2026-117K

PAYLOAD ACTIVE UNKNOWN

§ Identity

Operator
Country
US
Launch date
2026-05-29
Launch site
AFETR
Launch vehicle
Mass (kg)
RCS (m²)

Purposes: comms

External: N2YO · Heavens-Above · Gunter

§ Orbital elements

Epoch: 2026-09-19T22:43:20.635104Z

Period
93.85 min
Inclination
53.1579°
Eccentricity
0.0001456
Mean motion
15.34404257 rev/d
Perigee alt
461.7 km
Apogee alt
463.7 km
Semi-major
6,840.8 km
B*
2.7689e-4
RAAN
156.2247°
Arg perigee
71.3403°
Mean anomaly
288.7757°
Rev number
1,758

§ Raw data

STARLINK-372381 69247U 26117K   26262.94676661  .00008991  00000+0  27689-3 0  99992 69247  53.1579 156.2247 0001456  71.3403 288.7757 15.34404257 17581

JSON: /api/v1/satellites/69247 · /tle

For live sub-satellite position, see the globe view (requires WebGL).

§ Visibility from observer

Set your observer location to see the next 7 days of passes ≥ 10°. The values pass through the URL so the page stays shareable.

No JS? Fill the form by hand. The geolocation button needs JavaScript.